This is the latest recevied weather packets stored in our database for station/object KG4ZVW. If no packets are shown the sender has not sent any weather packets the latest 10 day(s).
| Time | Temp. | Humidity | Pressure | Rain* | Wind** | Luminosity | Snow |
|---|---|---|---|---|---|---|---|
| 1778014118 | 27.78° C | 55% | 1014.7 hPa | 0 mm | - | 513 W/m² | - |
| 1778013814 | 27.78° C | 53% | 1014.7 hPa | 0 mm | - | 584 W/m² | - |
| 1778013508 | 27.78° C | 54% | 1014.9 hPa | 0 mm | - | 527 W/m² | - |
| 1778013206 | 27.78° C | 49% | 1014.9 hPa | 0 mm | - | 529 W/m² | - |
| 1778012920 | 27.78° C | 51% | 1014.9 hPa | 0 mm | - | 561 W/m² | - |
| 1778012616 | 27.78° C | 50% | 1015 hPa | 0 mm | - | 570 W/m² | - |
| 1778012312 | 28.33° C | 50% | 1015 hPa | 0 mm | - | 691 W/m² | - |
| 1778012007 | 28.33° C | 49% | 1015 hPa | 0 mm | - | 682 W/m² | - |
| 1778011720 | 28.33° C | 51% | 1015.1 hPa | 0 mm | - | 675 W/m² | - |
| 1778011414 | 28.33° C | 51% | 1015.1 hPa | 0 mm | - | 707 W/m² | - |
| 1778011109 | 28.33° C | 50% | 1015.1 hPa | 0 mm | - | 766 W/m² | - |
| 1778010805 | 28.33° C | 48% | 1015.2 hPa | 0 mm | - | 719 W/m² | - |
| 1778010501 | 28.33° C | 49% | 1015.2 hPa | 0 mm | - | 747 W/m² | - |
| 1778010216 | 28.33° C | 48% | 1015.2 hPa | 0 mm | - | 742 W/m² | - |
| 1778009914 | 28.33° C | 51% | 1015.3 hPa | 0 mm | - | 747 W/m² | - |
| 1778009609 | 28.33° C | 52% | 1015.3 hPa | 0 mm | - | 777 W/m² | - |
| 1778009304 | 28.33° C | 54% | 1015.3 hPa | 0 mm | - | 803 W/m² | - |
| 1778009021 | 28.33° C | 50% | 1015.4 hPa | 0 mm | - | 817 W/m² | - |
| 1778008713 | 28.33° C | 51% | 1015.4 hPa | 0 mm | - | 835 W/m² | - |
| 1778008410 | 28.33° C | 52% | 1015.4 hPa | 0 mm | - | 833 W/m² | - |
| 1778008104 | 27.78° C | 50% | 1015.5 hPa | 0 mm | - | 846 W/m² | - |
| 1778007819 | 27.78° C | 51% | 1015.5 hPa | 0 mm | - | 847 W/m² | - |
| 1778007515 | 27.78° C | 54% | 1015.5 hPa | 0 mm | - | 854 W/m² | - |
| 1778007209 | 27.78° C | 52% | 1015.6 hPa | 0 mm | - | 870 W/m² | - |
| 1778006905 | 27.78° C | 56% | 1015.6 hPa | 0 mm | - | 881 W/m² | - |
* Rain latest hour (hover to see other rain measurements)
** Current wind speed in m/s (hover to see current wind gust speed)